This demonstration page uses our WeatherBlox Daily Observations layout. Learn more.

Left ArrowRight Arrow

44.8408, -93.29828

Hourly Observations for February 27, 2019

Temp ( °F °C ) Dew Point ( °F °C ) Humidity (%) Winds ( mph kmh ) Pressure ( in mb ) Visibility ( mi km ) Precip ( " mm )
12:53 am 00:53 Cloudy with Light Snow 8 -13.3 2 -16.7 76 76 NNW 6 9 30.40 1029 4 6 0.01 0.25
1:21 am 01:21 Cloudy with Light Snow 8 -13.3 3 -16.1 80 80 NNW 3 6 30.43 1030 2 3 0.00 0.03
1:30 am 01:30 Cloudy with Light Snow 8 -13.3 2 -16.7 76 76 NNW 3 6 30.43 1030 2 3 0.00 0.03
1:53 am 01:53 Cloudy with Light Snow 8 -13.3 3 -16.1 80 80 Calm 30.38 1029 2 2 0.01 0.25
2:11 am 02:11 Cloudy with Light Snow 7 -13.9 3 -16.1 84 84 WNW 6 9 30.43 1030 2 3 0.00 0.03
2:18 am 02:18 Cloudy with Light Snow 8 -13.3 3 -16.1 80 80 WNW 6 9 30.42 1030 1 2 0.01 0.25
2:53 am 02:53 Cloudy with Light Snow 7 -13.9 3 -16.1 84 84 NW 6 9 30.38 1029 1 2 0.02 0.51
3:01 am 03:01 Cloudy with Light Snow 7 -13.9 3 -16.1 84 84 NW 9 15 30.43 1030 2 2 0.01 0.25
3:08 am 03:08 Cloudy with Light Snow 7 -13.9 3 -16.1 84 84 NW 7 11 30.42 1030 1 2 0.01 0.25
3:40 am 03:40 Cloudy with Light Snow 7 -13.9 2 -16.7 80 80 NW 6 9 30.42 1030 2 2 0.02 0.51
3:53 am 03:53 Cloudy with Light Snow 7 -13.9 2 -16.7 80 80 NW 6 9 30.37 1029 2 3 0.03 0.76
3:55 am 03:55 Cloudy with Light Snow 7 -13.9 2 -16.7 80 80 NW 6 9 30.41 1030 2 3 0.00 0.03
4:06 am 04:06 Cloudy with Light Snow 7 -13.9 2 -16.7 80 80 WNW 7 11 30.42 1030 3 5 0.00 0.03
4:14 am 04:14 Cloudy with Light Snow 7 -13.9 2 -16.7 80 80 WNW 8 13 30.42 1030 3 4 0.00 0.03
4:22 am 04:22 Cloudy with Light Snow 7 -13.9 2 -16.7 80 80 NW 8 13 30.41 1030 3 5 0.00 0.03
4:32 am 04:32 Cloudy with Light Snow 7 -13.9 2 -16.7 80 80 NW 7 11 30.42 1030 3 4 0.00 0.03
4:46 am 04:46 Cloudy with Light Snow 7 -13.9 2 -16.7 80 80 WNW 6 9 30.41 1030 3 5 0.00 0.03
4:53 am 04:53 Cloudy with Light Snow 7 -13.9 2 -16.7 80 80 WNW 6 9 30.37 1029 4 6 0.00 0.03
5:53 am 05:53 Cloudy 7 -13.9 1 -17.2 76 76 NW 12 19 30.37 1029 10 16 0.01 0.25
6:53 am 06:53 Partly Cloudy 5 -15 -1 -18.3 76 76 NW 9 15 30.37 1028 10 16 0.00 0.00
7:53 am 07:53 Mostly Sunny 3 -16.1 -2 -18.9 79 79 NW 9 15 30.37 1029 10 16 0.00 0.00
8:53 am 08:53 Mostly Sunny 6 -14.4 -1 -18.3 73 73 NW 12 19 30.37 1029 10 16 0.00 0.00
9:53 am 09:53 Mostly Sunny 8 -13.3 -1 -18.3 66 66 NNW 14 22 30.37 1029 10 16 0.00 0.00
10:53 am 10:53 Mostly Sunny 9 -12.8 -1 -18.3 64 64 NNW 14 22 30.38 1029 10 16 0.00 0.00
11:53 am 11:53 Partly Cloudy 10 -12.2 -1 -18.3 61 61 WNW 13 20 30.38 1029 10 16 0.00 0.00
12:53 pm 12:53 Partly Cloudy 11 -11.7 -1 -18.3 58 58 NW 14 22 30.37 1029 10 16 0.00 0.00
1:53 pm 13:53 Partly Cloudy 12 -11.1 -1 -18.3 56 56 NW 14 22 30.36 1028 10 16 0.00 0.00
2:53 pm 14:53 Mostly Sunny 13 -10.6 -2 -18.9 51 51 NW 13 20 30.34 1028 10 16 0.00 0.00
3:53 pm 15:53 Mostly Sunny 13 -10.6 -1 -18.3 54 54 W 10 17 30.33 1027 10 16 0.00 0.00
4:53 pm 16:53 Mostly Sunny 12 -11.1 -2 -18.9 53 53 W 10 17 30.33 1027 10 16 0.00 0.00
5:53 pm 17:53 Mostly Sunny 7 -13.9 -3 -19.4 63 63 WSW 10 17 30.35 1028 10 16 0.00 0.00
6:53 pm 18:53 Mostly Clear 5 -15 -4 -20 66 66 W 8 13 30.36 1028 10 16 0.00 0.00
7:53 pm 19:53 Mostly Clear 4 -15.6 -5 -20.6 66 66 WSW 9 15 30.36 1028 10 16 0.00 0.00
8:53 pm 20:53 Mostly Clear 3 -16.1 -5 -20.6 69 69 WSW 6 9 30.34 1027 10 16 0.00 0.00
9:53 pm 21:53 Clear 1 -17.2 -6 -21.1 72 72 W 5 7 30.34 1027 9 14 0.00 0.00
10:53 pm 22:53 Clear 1 -17.2 -6 -21.1 72 72 WSW 3 6 30.34 1028 8 13 0.00 0.00
11:53 pm 23:53 Clear 0 -17.8 -6 -21.1 76 76 WSW 3 6 30.34 1027 9 14 0.00 0.00

Powered by AerisWeather